Weather in Jayapura

Indonesia     2°32′08″S   140°42′21″E
temp.,
°C
wind,
m/s
gust,
m/s
humid.,
%
clouds,
%
prec.,
mm/h
press.,
hPa
HPBL,
m
16 april, fri
fri1600:00+24s2392100 0.3 1009128
03:00+24ssw338952 2.2 1008114
06:00+24ssw2388100 0.1 1009113
09:00+27s227469 0.1 1010473
12:00+29ene3369100 0.1 1008808
15:00+29ene3368100 0.3 1006618
18:00+27ne3480100 0.0 1008435
21:00+26ene3583100 0.1 1010468
17 april, sat
sat1700:00+26ene2487100 1.3 1009231
03:00+25ese128494 2.3 1009292
06:00+24s3392100 1.4 1010119
09:00+25sse2387100 4.6 1012147
12:00+24ese3392100 2.1 1010207
15:00+23se3394100 8.2 1008254
18:00+23sse3493100 1.4 1009236
21:00+23sse3390100 1.6 1010192
18 april, sun
sun1800:00+23s2291100 0.1 1009149
03:00+23ssw2287100 0.3 1009139
06:00+23s2388100 0.1 1010128
09:00+24s3387100 0.1 1012184
12:00+29se216367 0.0 1009755
15:00+26ene228247 0.6 1007251
18:00+25ese128193 0.5 1009209
21:00+24sse128328 0.6 1010178
19 april, mon
mon1900:00+24ssw338968 0.0 1009130
03:00+23ssw228864 0.0 1008112
06:00+23ssw228684 0.0 1010100
09:00+27ssw1172100 0.1 1011377
12:00+27nnw1171100 0.1 1009503
15:00+27nnw227334 0.4 1007505
18:00+25nw127996 0.0 1008210
21:00+25w117992 0.0 1011230
20 april, tue
tue2000:00+24wsw118288 0.0 1009172
03:00+24wsw228311 0.0 1008202
06:00+24sw228272 0.0 1010199
09:00+28nnw1166100 0.0 1011548
12:00+28nnw3270100 0.0 1009608
15:00+28nnw346722 0.0 1007606
18:00+26nnw2380100 0.0 1010365
21:00+25n1183100 0.9 101235